<?xml version="1.0" encoding="UTF-8" standalone="yes"?>
<gpx version="1.1" creator="MagicMaps Tour Explorer"
     xmlns:xsi="http://www.w3.org/2001/XMLSchema-instance"
     xmlns="http://www.topografix.com/GPX/1/1">
  <trk>
    <name>breiteggern w</name>
    <trkseg>
      <trkpt lat="47.369873000" lon="12.055078000">
        <ele>1148.0</ele>
        <time>1989-12-31T00:00:00</time>
      </trkpt>
      <trkpt lat="47.370438000" lon="12.055603000">
        <ele>1142.7</ele>
        <time>1989-12-31T00:00:00</time>
      </trkpt>
      <trkpt lat="47.370617000" lon="12.055970000">
        <ele>1138.8</ele>
        <time>1989-12-31T00:00:00</time>
      </trkpt>
      <trkpt lat="47.370667000" lon="12.056338000">
        <ele>1135.9</ele>
        <time>1989-12-31T00:00:00</time>
      </trkpt>
      <trkpt lat="47.370767000" lon="12.056437000">
        <ele>1136.9</ele>
        <time>1989-12-31T00:00:00</time>
      </trkpt>
      <trkpt lat="47.370907000" lon="12.056369000">
        <ele>1142.2</ele>
        <time>1989-12-31T00:00:00</time>
      </trkpt>
      <trkpt lat="47.370935000" lon="12.056479000">
        <ele>1144.1</ele>
        <time>1989-12-31T00:00:00</time>
      </trkpt>
      <trkpt lat="47.370854000" lon="12.056691000">
        <ele>1146.0</ele>
        <time>1989-12-31T00:00:00</time>
      </trkpt>
      <trkpt lat="47.370862000" lon="12.056899000">
        <ele>1149.4</ele>
        <time>1989-12-31T00:00:00</time>
      </trkpt>
      <trkpt lat="47.370942000" lon="12.056969000">
        <ele>1148.9</ele>
        <time>1989-12-31T00:00:00</time>
      </trkpt>
      <trkpt lat="47.371081000" lon="12.056911000">
        <ele>1151.8</ele>
        <time>1989-12-31T00:00:00</time>
      </trkpt>
      <trkpt lat="47.371147000" lon="12.057326000">
        <ele>1158.0</ele>
        <time>1989-12-31T00:00:00</time>
      </trkpt>
      <trkpt lat="47.371210000" lon="12.057450000">
        <ele>1161.4</ele>
        <time>1989-12-31T00:00:00</time>
      </trkpt>
      <trkpt lat="47.371356000" lon="12.057642000">
        <ele>1167.7</ele>
        <time>1989-12-31T00:00:00</time>
      </trkpt>
      <trkpt lat="47.371527000" lon="12.057687000">
        <ele>1172.0</ele>
        <time>1989-12-31T00:00:00</time>
      </trkpt>
      <trkpt lat="47.371702000" lon="12.057849000">
        <ele>1175.8</ele>
        <time>1989-12-31T00:00:00</time>
      </trkpt>
      <trkpt lat="47.371574000" lon="12.058197000">
        <ele>1184.0</ele>
        <time>1989-12-31T00:00:00</time>
      </trkpt>
      <trkpt lat="47.372027000" lon="12.058687000">
        <ele>1197.5</ele>
        <time>1989-12-31T00:00:00</time>
      </trkpt>
      <trkpt lat="47.371830000" lon="12.058961000">
        <ele>1205.2</ele>
        <time>1989-12-31T00:00:00</time>
      </trkpt>
      <trkpt lat="47.371848000" lon="12.059057000">
        <ele>1208.0</ele>
        <time>1989-12-31T00:00:00</time>
      </trkpt>
      <trkpt lat="47.372038000" lon="12.059261000">
        <ele>1213.3</ele>
        <time>1989-12-31T00:00:00</time>
      </trkpt>
      <trkpt lat="47.371938000" lon="12.059405000">
        <ele>1219.1</ele>
        <time>1989-12-31T00:00:00</time>
      </trkpt>
      <trkpt lat="47.372106000" lon="12.059449000">
        <ele>1222.5</ele>
        <time>1989-12-31T00:00:00</time>
      </trkpt>
      <trkpt lat="47.372786000" lon="12.059989000">
        <ele>1232.5</ele>
        <time>1989-12-31T00:00:00</time>
      </trkpt>
      <trkpt lat="47.372724000" lon="12.060052000">
        <ele>1234.5</ele>
        <time>1989-12-31T00:00:00</time>
      </trkpt>
      <trkpt lat="47.372742000" lon="12.059982000">
        <ele>1235.4</ele>
        <time>1989-12-31T00:00:00</time>
      </trkpt>
      <trkpt lat="47.373392000" lon="12.060508000">
        <ele>1255.1</ele>
        <time>1989-12-31T00:00:00</time>
      </trkpt>
      <trkpt lat="47.373197000" lon="12.060695000">
        <ele>1264.8</ele>
        <time>1989-12-31T00:00:00</time>
      </trkpt>
      <trkpt lat="47.373291000" lon="12.060797000">
        <ele>1267.6</ele>
        <time>1989-12-31T00:00:00</time>
      </trkpt>
      <trkpt lat="47.373046000" lon="12.060858000">
        <ele>1270.5</ele>
        <time>1989-12-31T00:00:00</time>
      </trkpt>
      <trkpt lat="47.372736000" lon="12.061100000">
        <ele>1280.6</ele>
        <time>1989-12-31T00:00:00</time>
      </trkpt>
      <trkpt lat="47.372322000" lon="12.061147000">
        <ele>1285.9</ele>
        <time>1989-12-31T00:00:00</time>
      </trkpt>
      <trkpt lat="47.372429000" lon="12.061278000">
        <ele>1288.3</ele>
        <time>1989-12-31T00:00:00</time>
      </trkpt>
      <trkpt lat="47.372991000" lon="12.061586000">
        <ele>1298.4</ele>
        <time>1989-12-31T00:00:00</time>
      </trkpt>
      <trkpt lat="47.373133000" lon="12.061598000">
        <ele>1300.3</ele>
        <time>1989-12-31T00:00:00</time>
      </trkpt>
      <trkpt lat="47.373724000" lon="12.061862000">
        <ele>1308.0</ele>
        <time>1989-12-31T00:00:00</time>
      </trkpt>
      <trkpt lat="47.374242000" lon="12.061976000">
        <ele>1316.7</ele>
        <time>1989-12-31T00:00:00</time>
      </trkpt>
      <trkpt lat="47.374891000" lon="12.062503000">
        <ele>1325.3</ele>
        <time>1989-12-31T00:00:00</time>
      </trkpt>
      <trkpt lat="47.374895000" lon="12.062616000">
        <ele>1328.2</ele>
        <time>1989-12-31T00:00:00</time>
      </trkpt>
      <trkpt lat="47.374417000" lon="12.062540000">
        <ele>1335.4</ele>
        <time>1989-12-31T00:00:00</time>
      </trkpt>
      <trkpt lat="47.374022000" lon="12.062740000">
        <ele>1346.5</ele>
        <time>1989-12-31T00:00:00</time>
      </trkpt>
      <trkpt lat="47.373948000" lon="12.062867000">
        <ele>1349.8</ele>
        <time>1989-12-31T00:00:00</time>
      </trkpt>
      <trkpt lat="47.373641000" lon="12.063086000">
        <ele>1361.8</ele>
        <time>1989-12-31T00:00:00</time>
      </trkpt>
      <trkpt lat="47.374201000" lon="12.063717000">
        <ele>1382.0</ele>
        <time>1989-12-31T00:00:00</time>
      </trkpt>
      <trkpt lat="47.374139000" lon="12.063813000">
        <ele>1384.9</ele>
        <time>1989-12-31T00:00:00</time>
      </trkpt>
      <trkpt lat="47.373719000" lon="12.063971000">
        <ele>1398.9</ele>
        <time>1989-12-31T00:00:00</time>
      </trkpt>
      <trkpt lat="47.373945000" lon="12.064248000">
        <ele>1409.9</ele>
        <time>1989-12-31T00:00:00</time>
      </trkpt>
      <trkpt lat="47.373791000" lon="12.064297000">
        <ele>1413.8</ele>
        <time>1989-12-31T00:00:00</time>
      </trkpt>
      <trkpt lat="47.374855000" lon="12.065208000">
        <ele>1429.1</ele>
        <time>1989-12-31T00:00:00</time>
      </trkpt>
      <trkpt lat="47.375277000" lon="12.065785000">
        <ele>1438.3</ele>
        <time>1989-12-31T00:00:00</time>
      </trkpt>
      <trkpt lat="47.375268000" lon="12.065932000">
        <ele>1439.7</ele>
        <time>1989-12-31T00:00:00</time>
      </trkpt>
      <trkpt lat="47.375177000" lon="12.066105000">
        <ele>1442.6</ele>
        <time>1989-12-31T00:00:00</time>
      </trkpt>
      <trkpt lat="47.375286000" lon="12.066646000">
        <ele>1451.7</ele>
        <time>1989-12-31T00:00:00</time>
      </trkpt>
      <trkpt lat="47.375262000" lon="12.067513000">
        <ele>1463.3</ele>
        <time>1989-12-31T00:00:00</time>
      </trkpt>
      <trkpt lat="47.375378000" lon="12.068029000">
        <ele>1469.5</ele>
        <time>1989-12-31T00:00:00</time>
      </trkpt>
      <trkpt lat="47.375342000" lon="12.068171000">
        <ele>1470.5</ele>
        <time>1989-12-31T00:00:00</time>
      </trkpt>
      <trkpt lat="47.375283000" lon="12.068041000">
        <ele>1471.0</ele>
        <time>1989-12-31T00:00:00</time>
      </trkpt>
      <trkpt lat="47.375321000" lon="12.067975000">
        <ele>1469.0</ele>
        <time>1989-12-31T00:00:00</time>
      </trkpt>
      <trkpt lat="47.375255000" lon="12.068009000">
        <ele>1469.5</ele>
        <time>1989-12-31T00:00:00</time>
      </trkpt>
      <trkpt lat="47.374902000" lon="12.067650000">
        <ele>1476.2</ele>
        <time>1989-12-31T00:00:00</time>
      </trkpt>
      <trkpt lat="47.374929000" lon="12.067919000">
        <ele>1482.0</ele>
        <time>1989-12-31T00:00:00</time>
      </trkpt>
      <trkpt lat="47.374870000" lon="12.068126000">
        <ele>1488.3</ele>
        <time>1989-12-31T00:00:00</time>
      </trkpt>
      <trkpt lat="47.374541000" lon="12.068367000">
        <ele>1500.8</ele>
        <time>1989-12-31T00:00:00</time>
      </trkpt>
      <trkpt lat="47.374231000" lon="12.068753000">
        <ele>1508.9</ele>
        <time>1989-12-31T00:00:00</time>
      </trkpt>
      <trkpt lat="47.374116000" lon="12.069213000">
        <ele>1519.0</ele>
        <time>1989-12-31T00:00:00</time>
      </trkpt>
      <trkpt lat="47.374101000" lon="12.069529000">
        <ele>1528.2</ele>
        <time>1989-12-31T00:00:00</time>
      </trkpt>
      <trkpt lat="47.373945000" lon="12.069935000">
        <ele>1541.1</ele>
        <time>1989-12-31T00:00:00</time>
      </trkpt>
      <trkpt lat="47.373796000" lon="12.070124000">
        <ele>1548.3</ele>
        <time>1989-12-31T00:00:00</time>
      </trkpt>
      <trkpt lat="47.373679000" lon="12.070663000">
        <ele>1559.4</ele>
        <time>1989-12-31T00:00:00</time>
      </trkpt>
      <trkpt lat="47.373547000" lon="12.070754000">
        <ele>1563.7</ele>
        <time>1989-12-31T00:00:00</time>
      </trkpt>
      <trkpt lat="47.373259000" lon="12.072333000">
        <ele>1598.8</ele>
        <time>1989-12-31T00:00:00</time>
      </trkpt>
      <trkpt lat="47.373247000" lon="12.072914000">
        <ele>1613.2</ele>
        <time>1989-12-31T00:00:00</time>
      </trkpt>
      <trkpt lat="47.372636000" lon="12.073637000">
        <ele>1635.8</ele>
        <time>1989-12-31T00:00:00</time>
      </trkpt>
      <trkpt lat="47.372265000" lon="12.074277000">
        <ele>1656.0</ele>
        <time>1989-12-31T00:00:00</time>
      </trkpt>
      <trkpt lat="47.372140000" lon="12.074623000">
        <ele>1664.7</ele>
        <time>1989-12-31T00:00:00</time>
      </trkpt>
      <trkpt lat="47.371907000" lon="12.074804000">
        <ele>1675.2</ele>
        <time>1989-12-31T00:00:00</time>
      </trkpt>
      <trkpt lat="47.371946000" lon="12.075013000">
        <ele>1681.0</ele>
        <time>1989-12-31T00:00:00</time>
      </trkpt>
      <trkpt lat="47.371866000" lon="12.075081000">
        <ele>1684.8</ele>
        <time>1989-12-31T00:00:00</time>
      </trkpt>
      <trkpt lat="47.371725000" lon="12.075039000">
        <ele>1689.7</ele>
        <time>1989-12-31T00:00:00</time>
      </trkpt>
      <trkpt lat="47.371680000" lon="12.075096000">
        <ele>1691.1</ele>
        <time>1989-12-31T00:00:00</time>
      </trkpt>
      <trkpt lat="47.371699000" lon="12.075428000">
        <ele>1699.8</ele>
        <time>1989-12-31T00:00:00</time>
      </trkpt>
      <trkpt lat="47.371448000" lon="12.075474000">
        <ele>1710.8</ele>
        <time>1989-12-31T00:00:00</time>
      </trkpt>
      <trkpt lat="47.371477000" lon="12.075699000">
        <ele>1714.2</ele>
        <time>1989-12-31T00:00:00</time>
      </trkpt>
      <trkpt lat="47.371436000" lon="12.076046000">
        <ele>1721.9</ele>
        <time>1989-12-31T00:00:00</time>
      </trkpt>
      <trkpt lat="47.371301000" lon="12.076231000">
        <ele>1726.2</ele>
        <time>1989-12-31T00:00:00</time>
      </trkpt>
      <trkpt lat="47.371317000" lon="12.076439000">
        <ele>1731.5</ele>
        <time>1989-12-31T00:00:00</time>
      </trkpt>
      <trkpt lat="47.371098000" lon="12.077298000">
        <ele>1753.1</ele>
        <time>1989-12-31T00:00:00</time>
      </trkpt>
      <trkpt lat="47.370822000" lon="12.077828000">
        <ele>1766.6</ele>
        <time>1989-12-31T00:00:00</time>
      </trkpt>
      <trkpt lat="47.370525000" lon="12.077911000">
        <ele>1778.1</ele>
        <time>1989-12-31T00:00:00</time>
      </trkpt>
      <trkpt lat="47.370366000" lon="12.078220000">
        <ele>1785.3</ele>
        <time>1989-12-31T00:00:00</time>
      </trkpt>
      <trkpt lat="47.370261000" lon="12.078293000">
        <ele>1789.6</ele>
        <time>1989-12-31T00:00:00</time>
      </trkpt>
      <trkpt lat="47.370177000" lon="12.077686000">
        <ele>1802.1</ele>
        <time>1989-12-31T00:00:00</time>
      </trkpt>
      <trkpt lat="47.370085000" lon="12.077371000">
        <ele>1810.3</ele>
        <time>1989-12-31T00:00:00</time>
      </trkpt>
      <trkpt lat="47.370088000" lon="12.076853000">
        <ele>1821.8</ele>
        <time>1989-12-31T00:00:00</time>
      </trkpt>
      <trkpt lat="47.370009000" lon="12.076315000">
        <ele>1831.9</ele>
        <time>1989-12-31T00:00:00</time>
      </trkpt>
      <trkpt lat="47.369684000" lon="12.076278000">
        <ele>1845.4</ele>
        <time>1989-12-31T00:00:00</time>
      </trkpt>
      <trkpt lat="47.369756000" lon="12.076069000">
        <ele>1852.1</ele>
        <time>1989-12-31T00:00:00</time>
      </trkpt>
      <trkpt lat="47.369706000" lon="12.075988000">
        <ele>1853.1</ele>
        <time>1989-12-31T00:00:00</time>
      </trkpt>
      <trkpt lat="47.369539000" lon="12.076009000">
        <ele>1857.4</ele>
        <time>1989-12-31T00:00:00</time>
      </trkpt>
      <trkpt lat="47.369552000" lon="12.076074000">
        <ele>1859.3</ele>
        <time>1989-12-31T00:00:00</time>
      </trkpt>
      <trkpt lat="47.368942000" lon="12.076201000">
        <ele>1871.3</ele>
        <time>1989-12-31T00:00:00</time>
      </trkpt>
      <trkpt lat="47.368715000" lon="12.076323000">
        <ele>1876.2</ele>
        <time>1989-12-31T00:00:00</time>
      </trkpt>
      <trkpt lat="47.368057000" lon="12.076862000">
        <ele>1892.0</ele>
        <time>1989-12-31T00:00:00</time>
      </trkpt>
      <trkpt lat="47.367622000" lon="12.077562000">
        <ele>1908.8</ele>
        <time>1989-12-31T00:00:00</time>
      </trkpt>
      <trkpt lat="47.367366000" lon="12.077820000">
        <ele>1921.3</ele>
        <time>1989-12-31T00:00:00</time>
      </trkpt>
      <trkpt lat="47.367411000" lon="12.077883000">
        <ele>1922.8</ele>
        <time>1989-12-31T00:00:00</time>
      </trkpt>
      <trkpt lat="47.367391000" lon="12.077947000">
        <ele>1924.2</ele>
        <time>1989-12-31T00:00:00</time>
      </trkpt>
      <trkpt lat="47.367167000" lon="12.078081000">
        <ele>1932.9</ele>
        <time>1989-12-31T00:00:00</time>
      </trkpt>
      <trkpt lat="47.367025000" lon="12.078197000">
        <ele>1939.1</ele>
        <time>1989-12-31T00:00:00</time>
      </trkpt>
      <trkpt lat="47.367031000" lon="12.078393000">
        <ele>1942.0</ele>
        <time>1989-12-31T00:00:00</time>
      </trkpt>
      <trkpt lat="47.366852000" lon="12.078447000">
        <ele>1948.2</ele>
        <time>1989-12-31T00:00:00</time>
      </trkpt>
      <trkpt lat="47.366841000" lon="12.078631000">
        <ele>1955.5</ele>
        <time>1989-12-31T00:00:00</time>
      </trkpt>
      <trkpt lat="47.366742000" lon="12.078604000">
        <ele>1958.8</ele>
        <time>1989-12-31T00:00:00</time>
      </trkpt>
      <trkpt lat="47.366430000" lon="12.078733000">
        <ele>1968.0</ele>
        <time>1989-12-31T00:00:00</time>
      </trkpt>
      <trkpt lat="47.366418000" lon="12.078793000">
        <ele>1969.9</ele>
        <time>1989-12-31T00:00:00</time>
      </trkpt>
      <trkpt lat="47.366488000" lon="12.078908000">
        <ele>1973.2</ele>
        <time>1989-12-31T00:00:00</time>
      </trkpt>
      <trkpt lat="47.366302000" lon="12.079171000">
        <ele>1982.9</ele>
        <time>1989-12-31T00:00:00</time>
      </trkpt>
      <trkpt lat="47.366152000" lon="12.079566000">
        <ele>1993.0</ele>
        <time>1989-12-31T00:00:00</time>
      </trkpt>
      <trkpt lat="47.366209000" lon="12.079607000">
        <ele>1992.5</ele>
        <time>1989-12-31T00:00:00</time>
      </trkpt>
      <trkpt lat="47.366155000" lon="12.079930000">
        <ele>1996.3</ele>
        <time>1989-12-31T00:00:00</time>
      </trkpt>
      <trkpt lat="47.366349000" lon="12.081702000">
        <ele>1991.0</ele>
        <time>1989-12-31T00:00:00</time>
      </trkpt>
      <trkpt lat="47.366518000" lon="12.082205000">
        <ele>1984.3</ele>
        <time>1989-12-31T00:00:00</time>
      </trkpt>
      <trkpt lat="47.366837000" lon="12.082578000">
        <ele>1982.9</ele>
        <time>1989-12-31T00:00:00</time>
      </trkpt>
      <trkpt lat="47.366962000" lon="12.082845000">
        <ele>1988.6</ele>
        <time>1989-12-31T00:00:00</time>
      </trkpt>
      <trkpt lat="47.367237000" lon="12.083128000">
        <ele>1994.9</ele>
        <time>1989-12-31T00:00:00</time>
      </trkpt>
      <trkpt lat="47.367981000" lon="12.083481000">
        <ele>1996.3</ele>
        <time>1989-12-31T00:00:00</time>
      </trkpt>
      <trkpt lat="47.368194000" lon="12.083544000">
        <ele>1996.8</ele>
        <time>1989-12-31T00:00:00</time>
      </trkpt>
      <trkpt lat="47.369063000" lon="12.084324000">
        <ele>2000.6</ele>
        <time>1989-12-31T00:00:00</time>
      </trkpt>
      <trkpt lat="47.369383000" lon="12.084687000">
        <ele>2004.0</ele>
        <time>1989-12-31T00:00:00</time>
      </trkpt>
      <trkpt lat="47.369449000" lon="12.084890000">
        <ele>2002.6</ele>
        <time>1989-12-31T00:00:00</time>
      </trkpt>
      <trkpt lat="47.369533000" lon="12.084989000">
        <ele>2001.6</ele>
        <time>1989-12-31T00:00:00</time>
      </trkpt>
      <trkpt lat="47.369724000" lon="12.085597000">
        <ele>1979.0</ele>
        <time>1989-12-31T00:00:00</time>
      </trkpt>
      <trkpt lat="47.370201000" lon="12.086167000">
        <ele>1967.0</ele>
        <time>1989-12-31T00:00:00</time>
      </trkpt>
      <trkpt lat="47.370211000" lon="12.086324000">
        <ele>1967.5</ele>
        <time>1989-12-31T00:00:00</time>
      </trkpt>
      <trkpt lat="47.370446000" lon="12.086513000">
        <ele>1974.7</ele>
        <time>1989-12-31T00:00:00</time>
      </trkpt>
      <trkpt lat="47.370605000" lon="12.086844000">
        <ele>1967.5</ele>
        <time>1989-12-31T00:00:00</time>
      </trkpt>
      <trkpt lat="47.370791000" lon="12.087045000">
        <ele>1971.8</ele>
        <time>1989-12-31T00:00:00</time>
      </trkpt>
      <trkpt lat="47.370820000" lon="12.087143000">
        <ele>1975.2</ele>
        <time>1989-12-31T00:00:00</time>
      </trkpt>
      <trkpt lat="47.370983000" lon="12.087228000">
        <ele>1979.0</ele>
        <time>1989-12-31T00:00:00</time>
      </trkpt>
      <trkpt lat="47.371051000" lon="12.087404000">
        <ele>1980.9</ele>
        <time>1989-12-31T00:00:00</time>
      </trkpt>
      <trkpt lat="47.371178000" lon="12.087481000">
        <ele>1986.7</ele>
        <time>1989-12-31T00:00:00</time>
      </trkpt>
      <trkpt lat="47.371217000" lon="12.087423000">
        <ele>1988.6</ele>
        <time>1989-12-31T00:00:00</time>
      </trkpt>
      <trkpt lat="47.371318000" lon="12.087596000">
        <ele>1993.9</ele>
        <time>1989-12-31T00:00:00</time>
      </trkpt>
      <trkpt lat="47.371485000" lon="12.087654000">
        <ele>1992.0</ele>
        <time>1989-12-31T00:00:00</time>
      </trkpt>
      <trkpt lat="47.371502000" lon="12.087606000">
        <ele>1991.0</ele>
        <time>1989-12-31T00:00:00</time>
      </trkpt>
      <trkpt lat="47.371342000" lon="12.087566000">
        <ele>1989.1</ele>
        <time>1989-12-31T00:00:00</time>
      </trkpt>
      <trkpt lat="47.370996000" lon="12.087288000">
        <ele>1974.7</ele>
        <time>1989-12-31T00:00:00</time>
      </trkpt>
      <trkpt lat="47.370960000" lon="12.087214000">
        <ele>1971.8</ele>
        <time>1989-12-31T00:00:00</time>
      </trkpt>
      <trkpt lat="47.371027000" lon="12.087096000">
        <ele>1970.8</ele>
        <time>1989-12-31T00:00:00</time>
      </trkpt>
      <trkpt lat="47.370939000" lon="12.087056000">
        <ele>1967.5</ele>
        <time>1989-12-31T00:00:00</time>
      </trkpt>
      <trkpt lat="47.370886000" lon="12.086865000">
        <ele>1965.5</ele>
        <time>1989-12-31T00:00:00</time>
      </trkpt>
      <trkpt lat="47.370894000" lon="12.086578000">
        <ele>1957.9</ele>
        <time>1989-12-31T00:00:00</time>
      </trkpt>
      <trkpt lat="47.370945000" lon="12.086551000">
        <ele>1955.5</ele>
        <time>1989-12-31T00:00:00</time>
      </trkpt>
      <trkpt lat="47.371096000" lon="12.086352000">
        <ele>1944.9</ele>
        <time>1989-12-31T00:00:00</time>
      </trkpt>
      <trkpt lat="47.371193000" lon="12.086101000">
        <ele>1934.3</ele>
        <time>1989-12-31T00:00:00</time>
      </trkpt>
      <trkpt lat="47.371518000" lon="12.086138000">
        <ele>1928.1</ele>
        <time>1989-12-31T00:00:00</time>
      </trkpt>
      <trkpt lat="47.371670000" lon="12.085867000">
        <ele>1915.6</ele>
        <time>1989-12-31T00:00:00</time>
      </trkpt>
      <trkpt lat="47.371446000" lon="12.085582000">
        <ele>1910.3</ele>
        <time>1989-12-31T00:00:00</time>
      </trkpt>
      <trkpt lat="47.371413000" lon="12.085370000">
        <ele>1906.4</ele>
        <time>1989-12-31T00:00:00</time>
      </trkpt>
      <trkpt lat="47.371202000" lon="12.084876000">
        <ele>1899.7</ele>
        <time>1989-12-31T00:00:00</time>
      </trkpt>
      <trkpt lat="47.371024000" lon="12.084714000">
        <ele>1896.8</ele>
        <time>1989-12-31T00:00:00</time>
      </trkpt>
      <trkpt lat="47.371003000" lon="12.084006000">
        <ele>1880.5</ele>
        <time>1989-12-31T00:00:00</time>
      </trkpt>
      <trkpt lat="47.371033000" lon="12.083932000">
        <ele>1876.6</ele>
        <time>1989-12-31T00:00:00</time>
      </trkpt>
      <trkpt lat="47.370950000" lon="12.083798000">
        <ele>1872.3</ele>
        <time>1989-12-31T00:00:00</time>
      </trkpt>
      <trkpt lat="47.371017000" lon="12.083683000">
        <ele>1867.5</ele>
        <time>1989-12-31T00:00:00</time>
      </trkpt>
      <trkpt lat="47.371029000" lon="12.083524000">
        <ele>1862.2</ele>
        <time>1989-12-31T00:00:00</time>
      </trkpt>
      <trkpt lat="47.371062000" lon="12.083529000">
        <ele>1859.3</ele>
        <time>1989-12-31T00:00:00</time>
      </trkpt>
      <trkpt lat="47.371071000" lon="12.083216000">
        <ele>1849.2</ele>
        <time>1989-12-31T00:00:00</time>
      </trkpt>
      <trkpt lat="47.371192000" lon="12.083126000">
        <ele>1844.4</ele>
        <time>1989-12-31T00:00:00</time>
      </trkpt>
      <trkpt lat="47.371193000" lon="12.082793000">
        <ele>1833.8</ele>
        <time>1989-12-31T00:00:00</time>
      </trkpt>
      <trkpt lat="47.371256000" lon="12.082710000">
        <ele>1830.0</ele>
        <time>1989-12-31T00:00:00</time>
      </trkpt>
      <trkpt lat="47.371174000" lon="12.082615000">
        <ele>1825.7</ele>
        <time>1989-12-31T00:00:00</time>
      </trkpt>
      <trkpt lat="47.371224000" lon="12.082423000">
        <ele>1815.1</ele>
        <time>1989-12-31T00:00:00</time>
      </trkpt>
      <trkpt lat="47.371167000" lon="12.082179000">
        <ele>1807.4</ele>
        <time>1989-12-31T00:00:00</time>
      </trkpt>
      <trkpt lat="47.371401000" lon="12.081701000">
        <ele>1782.9</ele>
        <time>1989-12-31T00:00:00</time>
      </trkpt>
      <trkpt lat="47.371690000" lon="12.081503000">
        <ele>1775.2</ele>
        <time>1989-12-31T00:00:00</time>
      </trkpt>
      <trkpt lat="47.371646000" lon="12.081398000">
        <ele>1770.9</ele>
        <time>1989-12-31T00:00:00</time>
      </trkpt>
      <trkpt lat="47.371372000" lon="12.081405000">
        <ele>1767.0</ele>
        <time>1989-12-31T00:00:00</time>
      </trkpt>
      <trkpt lat="47.371292000" lon="12.081343000">
        <ele>1764.2</ele>
        <time>1989-12-31T00:00:00</time>
      </trkpt>
      <trkpt lat="47.371382000" lon="12.081099000">
        <ele>1760.3</ele>
        <time>1989-12-31T00:00:00</time>
      </trkpt>
      <trkpt lat="47.371752000" lon="12.080793000">
        <ele>1754.5</ele>
        <time>1989-12-31T00:00:00</time>
      </trkpt>
      <trkpt lat="47.371849000" lon="12.080505000">
        <ele>1754.5</ele>
        <time>1989-12-31T00:00:00</time>
      </trkpt>
      <trkpt lat="47.371825000" lon="12.079844000">
        <ele>1754.5</ele>
        <time>1989-12-31T00:00:00</time>
      </trkpt>
      <trkpt lat="47.371672000" lon="12.079454000">
        <ele>1747.3</ele>
        <time>1989-12-31T00:00:00</time>
      </trkpt>
      <trkpt lat="47.371661000" lon="12.079145000">
        <ele>1744.5</ele>
        <time>1989-12-31T00:00:00</time>
      </trkpt>
      <trkpt lat="47.371758000" lon="12.078870000">
        <ele>1743.5</ele>
        <time>1989-12-31T00:00:00</time>
      </trkpt>
      <trkpt lat="47.371966000" lon="12.078722000">
        <ele>1738.2</ele>
        <time>1989-12-31T00:00:00</time>
      </trkpt>
      <trkpt lat="47.372105000" lon="12.078381000">
        <ele>1734.8</ele>
        <time>1989-12-31T00:00:00</time>
      </trkpt>
      <trkpt lat="47.372143000" lon="12.077574000">
        <ele>1728.1</ele>
        <time>1989-12-31T00:00:00</time>
      </trkpt>
      <trkpt lat="47.372043000" lon="12.077250000">
        <ele>1721.9</ele>
        <time>1989-12-31T00:00:00</time>
      </trkpt>
      <trkpt lat="47.371909000" lon="12.077150000">
        <ele>1719.0</ele>
        <time>1989-12-31T00:00:00</time>
      </trkpt>
      <trkpt lat="47.372046000" lon="12.076879000">
        <ele>1710.8</ele>
        <time>1989-12-31T00:00:00</time>
      </trkpt>
      <trkpt lat="47.372047000" lon="12.076452000">
        <ele>1707.0</ele>
        <time>1989-12-31T00:00:00</time>
      </trkpt>
      <trkpt lat="47.372175000" lon="12.076471000">
        <ele>1701.7</ele>
        <time>1989-12-31T00:00:00</time>
      </trkpt>
      <trkpt lat="47.372206000" lon="12.076369000">
        <ele>1697.8</ele>
        <time>1989-12-31T00:00:00</time>
      </trkpt>
      <trkpt lat="47.372273000" lon="12.076361000">
        <ele>1694.5</ele>
        <time>1989-12-31T00:00:00</time>
      </trkpt>
      <trkpt lat="47.372333000" lon="12.076260000">
        <ele>1688.7</ele>
        <time>1989-12-31T00:00:00</time>
      </trkpt>
      <trkpt lat="47.372320000" lon="12.076185000">
        <ele>1688.2</ele>
        <time>1989-12-31T00:00:00</time>
      </trkpt>
      <trkpt lat="47.372418000" lon="12.076065000">
        <ele>1681.5</ele>
        <time>1989-12-31T00:00:00</time>
      </trkpt>
      <trkpt lat="47.372578000" lon="12.075492000">
        <ele>1668.0</ele>
        <time>1989-12-31T00:00:00</time>
      </trkpt>
      <trkpt lat="47.372783000" lon="12.075407000">
        <ele>1661.3</ele>
        <time>1989-12-31T00:00:00</time>
      </trkpt>
      <trkpt lat="47.372858000" lon="12.075271000">
        <ele>1657.0</ele>
        <time>1989-12-31T00:00:00</time>
      </trkpt>
      <trkpt lat="47.373123000" lon="12.075185000">
        <ele>1652.6</ele>
        <time>1989-12-31T00:00:00</time>
      </trkpt>
      <trkpt lat="47.373250000" lon="12.074837000">
        <ele>1645.0</ele>
        <time>1989-12-31T00:00:00</time>
      </trkpt>
      <trkpt lat="47.373361000" lon="12.074811000">
        <ele>1640.6</ele>
        <time>1989-12-31T00:00:00</time>
      </trkpt>
      <trkpt lat="47.373328000" lon="12.074437000">
        <ele>1633.9</ele>
        <time>1989-12-31T00:00:00</time>
      </trkpt>
      <trkpt lat="47.373449000" lon="12.074313000">
        <ele>1626.7</ele>
        <time>1989-12-31T00:00:00</time>
      </trkpt>
      <trkpt lat="47.373351000" lon="12.073548000">
        <ele>1617.1</ele>
        <time>1989-12-31T00:00:00</time>
      </trkpt>
      <trkpt lat="47.373370000" lon="12.073332000">
        <ele>1614.2</ele>
        <time>1989-12-31T00:00:00</time>
      </trkpt>
      <trkpt lat="47.373250000" lon="12.072715000">
        <ele>1606.0</ele>
        <time>1989-12-31T00:00:00</time>
      </trkpt>
      <trkpt lat="47.373237000" lon="12.071793000">
        <ele>1588.7</ele>
        <time>1989-12-31T00:00:00</time>
      </trkpt>
      <trkpt lat="47.373059000" lon="12.070525000">
        <ele>1574.3</ele>
        <time>1989-12-31T00:00:00</time>
      </trkpt>
      <trkpt lat="47.373122000" lon="12.070235000">
        <ele>1569.5</ele>
        <time>1989-12-31T00:00:00</time>
      </trkpt>
      <trkpt lat="47.373298000" lon="12.070271000">
        <ele>1562.3</ele>
        <time>1989-12-31T00:00:00</time>
      </trkpt>
      <trkpt lat="47.373316000" lon="12.070221000">
        <ele>1562.3</ele>
        <time>1989-12-31T00:00:00</time>
      </trkpt>
      <trkpt lat="47.373518000" lon="12.069547000">
        <ele>1549.8</ele>
        <time>1989-12-31T00:00:00</time>
      </trkpt>
      <trkpt lat="47.373651000" lon="12.068793000">
        <ele>1539.2</ele>
        <time>1989-12-31T00:00:00</time>
      </trkpt>
      <trkpt lat="47.373982000" lon="12.068424000">
        <ele>1522.4</ele>
        <time>1989-12-31T00:00:00</time>
      </trkpt>
      <trkpt lat="47.374122000" lon="12.068422000">
        <ele>1513.7</ele>
        <time>1989-12-31T00:00:00</time>
      </trkpt>
      <trkpt lat="47.374351000" lon="12.067984000">
        <ele>1499.8</ele>
        <time>1989-12-31T00:00:00</time>
      </trkpt>
      <trkpt lat="47.374459000" lon="12.067386000">
        <ele>1495.0</ele>
        <time>1989-12-31T00:00:00</time>
      </trkpt>
      <trkpt lat="47.374462000" lon="12.067148000">
        <ele>1493.5</ele>
        <time>1989-12-31T00:00:00</time>
      </trkpt>
      <trkpt lat="47.374396000" lon="12.066807000">
        <ele>1493.1</ele>
        <time>1989-12-31T00:00:00</time>
      </trkpt>
      <trkpt lat="47.374429000" lon="12.066727000">
        <ele>1488.3</ele>
        <time>1989-12-31T00:00:00</time>
      </trkpt>
      <trkpt lat="47.374533000" lon="12.066809000">
        <ele>1483.9</ele>
        <time>1989-12-31T00:00:00</time>
      </trkpt>
      <trkpt lat="47.374692000" lon="12.066704000">
        <ele>1476.7</ele>
        <time>1989-12-31T00:00:00</time>
      </trkpt>
      <trkpt lat="47.374759000" lon="12.066757000">
        <ele>1475.3</ele>
        <time>1989-12-31T00:00:00</time>
      </trkpt>
      <trkpt lat="47.374890000" lon="12.066733000">
        <ele>1470.5</ele>
        <time>1989-12-31T00:00:00</time>
      </trkpt>
      <trkpt lat="47.374903000" lon="12.066553000">
        <ele>1463.7</ele>
        <time>1989-12-31T00:00:00</time>
      </trkpt>
      <trkpt lat="47.374959000" lon="12.066589000">
        <ele>1460.4</ele>
        <time>1989-12-31T00:00:00</time>
      </trkpt>
      <trkpt lat="47.374966000" lon="12.066218000">
        <ele>1456.0</ele>
        <time>1989-12-31T00:00:00</time>
      </trkpt>
      <trkpt lat="47.375101000" lon="12.066296000">
        <ele>1446.0</ele>
        <time>1989-12-31T00:00:00</time>
      </trkpt>
      <trkpt lat="47.375115000" lon="12.066195000">
        <ele>1440.7</ele>
        <time>1989-12-31T00:00:00</time>
      </trkpt>
      <trkpt lat="47.375203000" lon="12.066192000">
        <ele>1437.8</ele>
        <time>1989-12-31T00:00:00</time>
      </trkpt>
      <trkpt lat="47.375204000" lon="12.066117000">
        <ele>1437.3</ele>
        <time>1989-12-31T00:00:00</time>
      </trkpt>
      <trkpt lat="47.375334000" lon="12.065931000">
        <ele>1434.4</ele>
        <time>1989-12-31T00:00:00</time>
      </trkpt>
      <trkpt lat="47.374934000" lon="12.065255000">
        <ele>1424.8</ele>
        <time>1989-12-31T00:00:00</time>
      </trkpt>
      <trkpt lat="47.375112000" lon="12.065272000">
        <ele>1420.0</ele>
        <time>1989-12-31T00:00:00</time>
      </trkpt>
      <trkpt lat="47.375101000" lon="12.065183000">
        <ele>1413.3</ele>
        <time>1989-12-31T00:00:00</time>
      </trkpt>
      <trkpt lat="47.374848000" lon="12.064830000">
        <ele>1406.5</ele>
        <time>1989-12-31T00:00:00</time>
      </trkpt>
      <trkpt lat="47.374521000" lon="12.064229000">
        <ele>1390.7</ele>
        <time>1989-12-31T00:00:00</time>
      </trkpt>
      <trkpt lat="47.374562000" lon="12.064121000">
        <ele>1383.5</ele>
        <time>1989-12-31T00:00:00</time>
      </trkpt>
      <trkpt lat="47.374778000" lon="12.064062000">
        <ele>1375.8</ele>
        <time>1989-12-31T00:00:00</time>
      </trkpt>
      <trkpt lat="47.374745000" lon="12.063930000">
        <ele>1374.3</ele>
        <time>1989-12-31T00:00:00</time>
      </trkpt>
      <trkpt lat="47.374549000" lon="12.063692000">
        <ele>1368.6</ele>
        <time>1989-12-31T00:00:00</time>
      </trkpt>
      <trkpt lat="47.374587000" lon="12.063595000">
        <ele>1361.8</ele>
        <time>1989-12-31T00:00:00</time>
      </trkpt>
      <trkpt lat="47.374569000" lon="12.063399000">
        <ele>1356.6</ele>
        <time>1989-12-31T00:00:00</time>
      </trkpt>
      <trkpt lat="47.373932000" lon="12.062793000">
        <ele>1339.7</ele>
        <time>1989-12-31T00:00:00</time>
      </trkpt>
      <trkpt lat="47.373667000" lon="12.062639000">
        <ele>1333.5</ele>
        <time>1989-12-31T00:00:00</time>
      </trkpt>
      <trkpt lat="47.374412000" lon="12.062537000">
        <ele>1324.3</ele>
        <time>1989-12-31T00:00:00</time>
      </trkpt>
      <trkpt lat="47.374867000" lon="12.062602000">
        <ele>1316.2</ele>
        <time>1989-12-31T00:00:00</time>
      </trkpt>
      <trkpt lat="47.374926000" lon="12.062474000">
        <ele>1313.3</ele>
        <time>1989-12-31T00:00:00</time>
      </trkpt>
      <trkpt lat="47.374299000" lon="12.061950000">
        <ele>1305.1</ele>
        <time>1989-12-31T00:00:00</time>
      </trkpt>
      <trkpt lat="47.373118000" lon="12.061537000">
        <ele>1287.3</ele>
        <time>1989-12-31T00:00:00</time>
      </trkpt>
      <trkpt lat="47.372313000" lon="12.061100000">
        <ele>1273.9</ele>
        <time>1989-12-31T00:00:00</time>
      </trkpt>
      <trkpt lat="47.372648000" lon="12.061069000">
        <ele>1266.2</ele>
        <time>1989-12-31T00:00:00</time>
      </trkpt>
      <trkpt lat="47.373482000" lon="12.060728000">
        <ele>1251.3</ele>
        <time>1989-12-31T00:00:00</time>
      </trkpt>
      <trkpt lat="47.373467000" lon="12.060662000">
        <ele>1248.9</ele>
        <time>1989-12-31T00:00:00</time>
      </trkpt>
      <trkpt lat="47.373195000" lon="12.060487000">
        <ele>1243.1</ele>
        <time>1989-12-31T00:00:00</time>
      </trkpt>
      <trkpt lat="47.373260000" lon="12.060316000">
        <ele>1238.8</ele>
        <time>1989-12-31T00:00:00</time>
      </trkpt>
      <trkpt lat="47.373406000" lon="12.060288000">
        <ele>1236.4</ele>
        <time>1989-12-31T00:00:00</time>
      </trkpt>
      <trkpt lat="47.373191000" lon="12.060037000">
        <ele>1225.8</ele>
        <time>1989-12-31T00:00:00</time>
      </trkpt>
      <trkpt lat="47.372965000" lon="12.059920000">
        <ele>1219.1</ele>
        <time>1989-12-31T00:00:00</time>
      </trkpt>
      <trkpt lat="47.372667000" lon="12.059587000">
        <ele>1209.0</ele>
        <time>1989-12-31T00:00:00</time>
      </trkpt>
      <trkpt lat="47.372533000" lon="12.059342000">
        <ele>1200.3</ele>
        <time>1989-12-31T00:00:00</time>
      </trkpt>
      <trkpt lat="47.372567000" lon="12.059261000">
        <ele>1198.9</ele>
        <time>1989-12-31T00:00:00</time>
      </trkpt>
      <trkpt lat="47.372329000" lon="12.059300000">
        <ele>1197.9</ele>
        <time>1989-12-31T00:00:00</time>
      </trkpt>
      <trkpt lat="47.371703000" lon="12.059012000">
        <ele>1185.4</ele>
        <time>1989-12-31T00:00:00</time>
      </trkpt>
      <trkpt lat="47.371715000" lon="12.058945000">
        <ele>1185.0</ele>
        <time>1989-12-31T00:00:00</time>
      </trkpt>
      <trkpt lat="47.371315000" lon="12.058672000">
        <ele>1177.3</ele>
        <time>1989-12-31T00:00:00</time>
      </trkpt>
      <trkpt lat="47.371284000" lon="12.058016000">
        <ele>1160.0</ele>
        <time>1989-12-31T00:00:00</time>
      </trkpt>
      <trkpt lat="47.371319000" lon="12.057554000">
        <ele>1148.0</ele>
        <time>1989-12-31T00:00:00</time>
      </trkpt>
      <trkpt lat="47.371024000" lon="12.057455000">
        <ele>1141.7</ele>
        <time>1989-12-31T00:00:00</time>
      </trkpt>
      <trkpt lat="47.371138000" lon="12.057350000">
        <ele>1139.8</ele>
        <time>1989-12-31T00:00:00</time>
      </trkpt>
      <trkpt lat="47.371141000" lon="12.056988000">
        <ele>1135.5</ele>
        <time>1989-12-31T00:00:00</time>
      </trkpt>
      <trkpt lat="47.371095000" lon="12.056902000">
        <ele>1131.6</ele>
        <time>1989-12-31T00:00:00</time>
      </trkpt>
      <trkpt lat="47.370881000" lon="12.056935000">
        <ele>1130.7</ele>
        <time>1989-12-31T00:00:00</time>
      </trkpt>
      <trkpt lat="47.370916000" lon="12.056454000">
        <ele>1123.9</ele>
        <time>1989-12-31T00:00:00</time>
      </trkpt>
      <trkpt lat="47.370751000" lon="12.055714000">
        <ele>1115.8</ele>
        <time>1989-12-31T00:00:00</time>
      </trkpt>
      <trkpt lat="47.369976000" lon="12.055130000">
        <ele>1123.4</ele>
        <time>1989-12-31T00:00:00</time>
      </trkpt>
    </trkseg>
  </trk>
</gpx>
